Погода в Утене

Литва     55°29′52″N   25°36′52″E
темп.,
°C
ветер,
м/с
пор.,
м/с
влажн.,
%
обл.,
%
осадки,
мм/ч
давл.,
гПа
погр.,
м
14 апреля, ср
ср1400:00+1ссз61297100 2.2 1022430
03:00+1с51198100 3.5 1021360
06:00+1с51198100 0.8 1021381
09:00+1ссв51193100 1.0 1021501
12:00+2ссв51089100 0.3 1021636
15:00+2ссв51196100 0.9 1021538
18:00+2ссв61398100 0.8 1021533
21:00+3св71398100 2.3 1021679
15 апреля, чт
чт1500:00+3св71395100 0.6 1020599
03:00+4св71486100 0.6 1020600
06:00+3св71582100 0.0 1021510
09:00+4св71481100 0.0 1021582
12:00+7св81272100 0.0 1021757
15:00+6св71474100 0.1 1021790
18:00+5св81479100 0.1 1021892
21:00+5св71492100 0.8 1021756
16 апреля, пт
пт1600:00+5св71493100 0.2 1020677
03:00+5св71393100 0.3 1019612
06:00+5св71394100 0.6 1019596
09:00+5св71393100 0.9 1020634
12:00+7св7118797 0.4 1020635
15:00+8св61086100 0.4 1021696
18:00+8всв61085100 0.0 1021682
21:00+7всв51089100 0.0 1022716
17 апреля, сб
сб1700:00+7св5129191 0.1 1022475
03:00+7св51194100 0.1 1022375
06:00+7всв51190100 0.0 1023486
09:00+8всв6108583 0.0 1024410
12:00+7всв5990100 0.4 1025418
15:00+11всв787670 0.4 1025772
18:00+10в6878100 0.0 1025756
21:00+8в4986100 0.0 1025321
18 апреля, вс
вс1800:00+9всв41085100 0.0 1025364
03:00+8всв4990100 0.0 1025216
06:00+7всв41189100 0.0 1025279
09:00+9в6107290 0.0 1025418
12:00+13вюв685874 0.0 1025905
15:00+15вюв675594 0.0 10241533
18:00+14вюв4862100 0.0 1025384
21:00+11вюв4974100 0.0 1026290